owner,sensor,date,latitude,longitude,vertical_datum,mass_concentration_of_oxygen_in_sea_water,qcFlag 
DISL,ioos:station:DISL:MBLA:1,2015-02-01T00:02:00Z,30.4367,-88.0117,2.942,10.33,1111122 
DISL,ioos:station:DISL:MBLA:1,2015-02-01T00:05:00Z,30.4367,-88.0117,2.501,11.46,1111122 
DISL,ioos:station:DISL:MBLA:1,2015-02-01T00:07:00Z,30.4367,-88.0117,2.01,12.13,1111122 
DISL,ioos:station:DISL:MBLA:1,2015-02-01T00:10:00Z,30.4367,-88.0117,1.516,12.61,1111122 
DISL,ioos:station:DISL:MBLA:1,2015-02-01T00:12:00Z,30.4367,-88.0117,1.009,12.96,1111122 
DISL,ioos:station:DISL:MBLA:1,2015-02-01T00:15:00Z,30.4367,-88.0117,0.527,12.29,1111122 
DISL,ioos:station:DISL:MBLA:1,2015-02-01T01:03:00Z,30.4367,-88.0117,2.979,9.84,1111122 
DISL,ioos:station:DISL:MBLA:1,2015-02-01T01:05:00Z,30.4367,-88.0117,2.481,10.23,1111122 
DISL,ioos:station:DISL:MBLA:1,2015-02-01T01:07:00Z,30.4367,-88.0117,2.002,10.32,1111122 
DISL,ioos:station:DISL:MBLA:1,2015-02-01T01:10:00Z,30.4367,-88.0117,1.141,10.41,1111122 
DISL,ioos:station:DISL:MBLA:1,2015-02-01T01:12:00Z,30.4367,-88.0117,1.037,10.45,1111122 
DISL,ioos:station:DISL:MBLA:1,2015-02-01T01:15:00Z,30.4367,-88.0117,0.473,10.42,1111122 
DISL,ioos:station:DISL:MBLA:1,2015-02-01T02:03:00Z,30.4367,-88.0117,2.949,9.88,1111122 
DISL,ioos:station:DISL:MBLA:1,2015-02-01T02:05:00Z,30.4367,-88.0117,2.52,10.07,1111122 
DISL,ioos:station:DISL:MBLA:1,2015-02-01T02:07:00Z,30.4367,-88.0117,2.038,10.1,1111122 
DISL,ioos:station:DISL:MBLA:1,2015-02-01T02:10:00Z,30.4367,-88.0117,1.552,10.09,1111122 
DISL,ioos:station:DISL:MBLA:1,2015-02-01T02:12:00Z,30.4367,-88.0117,0.987,10.1,1111122 
DISL,ioos:station:DISL:MBLA:1,2015-02-01T02:15:00Z,30.4367,-88.0117,0.483,10.04,1111122 
DISL,ioos:station:DISL:MBLA:1,2015-02-01T03:03:00Z,30.4367,-88.0117,2.935,9.94,1111122 
DISL,ioos:station:DISL:MBLA:1,2015-02-01T03:07:00Z,30.4367,-88.0117,2.031,10.05,1111122 
DISL,ioos:station:DISL:MBLA:1,2015-02-01T03:10:00Z,30.4367,-88.0117,1.534,10.1,1111122 
DISL,ioos:station:DISL:MBLA:1,2015-02-01T03:12:00Z,30.4367,-88.0117,1.036,10.12,1111122 
DISL,ioos:station:DISL:MBLA:1,2015-02-01T03:15:00Z,30.4367,-88.0117,0.462,10.06,1111122 
DISL,ioos:station:DISL:MBLA:1,2015-02-01T04:02:00Z,30.4367,-88.0117,2.94,9.88,1111122 
DISL,ioos:station:DISL:MBLA:1,2015-02-01T04:05:00Z,30.4367,-88.0117,2.503,10.08,1111122 
DISL,ioos:station:DISL:MBLA:1,2015-02-01T04:07:00Z,30.4367,-88.0117,2.029,10.04,1111122 
DISL,ioos:station:DISL:MBLA:1,2015-02-01T04:10:00Z,30.4367,-88.0117,1.538,10.07,1111122 
DISL,ioos:station:DISL:MBLA:1,2015-02-01T04:12:00Z,30.4367,-88.0117,0.984,10.07,1111122 
DISL,ioos:station:DISL:MBLA:1,2015-02-01T04:15:00Z,30.4367,-88.0117,0.478,10.05,1111122 
DISL,ioos:station:DISL:MBLA:1,2015-02-01T05:02:00Z,30.4367,-88.0117,2.962,10.81,1111122 
DISL,ioos:station:DISL:MBLA:1,2015-02-01T05:05:00Z,30.4367,-88.0117,2.522,10.46,1111122 
DISL,ioos:station:DISL:MBLA:1,2015-02-01T05:07:00Z,30.4367,-88.0117,2.038,10.14,1111122 
DISL,ioos:station:DISL:MBLA:1,2015-02-01T05:10:00Z,30.4367,-88.0117,1.49,10.06,1111122 
DISL,ioos:station:DISL:MBLA:1,2015-02-01T05:12:00Z,30.4367,-88.0117,0.995,10.11,1111122 
DISL,ioos:station:DISL:MBLA:1,2015-02-01T05:15:00Z,30.4367,-88.0117,0.492,10.13,1111122 
DISL,ioos:station:DISL:MBLA:1,2015-02-01T06:02:00Z,30.4367,-88.0117,2.954,10.16,1111122 
DISL,ioos:station:DISL:MBLA:1,2015-02-01T06:05:00Z,30.4367,-88.0117,2.52,10.71,1111122 
DISL,ioos:station:DISL:MBLA:1,2015-02-01T06:07:00Z,30.4367,-88.0117,2.04,11.22,1111122 
DISL,ioos:station:DISL:MBLA:1,2015-02-01T06:10:00Z,30.4367,-88.0117,1.498,11.41,1111122 
DISL,ioos:station:DISL:MBLA:1,2015-02-01T06:12:00Z,30.4367,-88.0117,1.015,11.86,1111122 
DISL,ioos:station:DISL:MBLA:1,2015-02-01T06:15:00Z,30.4367,-88.0117,0.52,11.93,1111122 
DISL,ioos:station:DISL:MBLA:1,2015-02-01T07:03:00Z,30.4367,-88.0117,2.914,11.56,1111122 
DISL,ioos:station:DISL:MBLA:1,2015-02-01T07:08:00Z,30.4367,-88.0117,2.014,11.81,1111122 
DISL,ioos:station:DISL:MBLA:1,2015-02-01T07:10:00Z,30.4367,-88.0117,1.532,11.65,1111122 
DISL,ioos:station:DISL:MBLA:1,2015-02-01T07:12:00Z,30.4367,-88.0117,0.98,11.49,1111122 
DISL,ioos:station:DISL:MBLA:1,2015-02-01T07:15:00Z,30.4367,-88.0117,0.536,11.29,1111122 
DISL,ioos:station:DISL:MBLA:1,2015-02-01T08:05:00Z,30.4367,-88.0117,2.534,10.83,1111122 
DISL,ioos:station:DISL:MBLA:1,2015-02-01T08:07:00Z,30.4367,-88.0117,1.975,11.05,1111122 
DISL,ioos:station:DISL:MBLA:1,2015-02-01T08:10:00Z,30.4367,-88.0117,1.498,11.09,1111122 
DISL,ioos:station:DISL:MBLA:1,2015-02-01T08:12:00Z,30.4367,-88.0117,1.014,11.11,1111122 
DISL,ioos:station:DISL:MBLA:1,2015-02-01T08:15:00Z,30.4367,-88.0117,0.434,11.04,1111122 
DISL,ioos:station:DISL:MBLA:1,2015-02-01T09:03:00Z,30.4367,-88.0117,2.926,9.71,1111122 
DISL,ioos:station:DISL:MBLA:1,2015-02-01T10:02:00Z,30.4367,-88.0117,2.917,9.57,1111122 
DISL,ioos:station:DISL:MBLA:1,2015-02-01T10:07:00Z,30.4367,-88.0117,2.03,11.12,1111122 
DISL,ioos:station:DISL:MBLA:1,2015-02-01T10:10:00Z,30.4367,-88.0117,1.332,11.35,1111122 
DISL,ioos:station:DISL:MBLA:1,2015-02-01T10:12:00Z,30.4367,-88.0117,0.986,11.42,1111122 
DISL,ioos:station:DISL:MBLA:1,2015-02-01T10:15:00Z,30.4367,-88.0117,0.536,11.49,1111122 
DISL,ioos:station:DISL:MBLA:1,2015-02-01T11:03:00Z,30.4367,-88.0117,2.936,9.59,1111122 
DISL,ioos:station:DISL:MBLA:1,2015-02-01T11:05:00Z,30.4367,-88.0117,2.525,10.26,1111122 
DISL,ioos:station:DISL:MBLA:1,2015-02-01T11:07:00Z,30.4367,-88.0117,2.036,10.68,1111122 
DISL,ioos:station:DISL:MBLA:1,2015-02-01T11:10:00Z,30.4367,-88.0117,1.557,11.05,1111122 
DISL,ioos:station:DISL:MBLA:1,2015-02-01T11:12:00Z,30.4367,-88.0117,1.012,11.26,1111122 
DISL,ioos:station:DISL:MBLA:1,2015-02-01T11:15:00Z,30.4367,-88.0117,0.501,11.39,1111122 
DISL,ioos:station:DISL:MBLA:1,2015-02-01T12:03:00Z,30.4367,-88.0117,2.92,8.79,1111122 
DISL,ioos:station:DISL:MBLA:1,2015-02-01T12:05:00Z,30.4367,-88.0117,2.507,9.81,1111122 
DISL,ioos:station:DISL:MBLA:1,2015-02-01T12:07:00Z,30.4367,-88.0117,2.025,10.33,1111122 
DISL,ioos:station:DISL:MBLA:1,2015-02-01T12:10:00Z,30.4367,-88.0117,1.548,10.96,1111122 
DISL,ioos:station:DISL:MBLA:1,2015-02-01T12:12:00Z,30.4367,-88.0117,1.007,11.24,1111122 
DISL,ioos:station:DISL:MBLA:1,2015-02-01T12:15:00Z,30.4367,-88.0117,0.498,11.38,1111122 
DISL,ioos:station:DISL:MBLA:1,2015-02-01T13:02:00Z,30.4367,-88.0117,2.951,9.12,1111122 
DISL,ioos:station:DISL:MBLA:1,2015-02-01T13:05:00Z,30.4367,-88.0117,2.486,10.25,1111122 
DISL,ioos:station:DISL:MBLA:1,2015-02-01T13:07:00Z,30.4367,-88.0117,1.994,11.39,1111122 
DISL,ioos:station:DISL:MBLA:1,2015-02-01T13:10:00Z,30.4367,-88.0117,1.511,11.52,1111122 
DISL,ioos:station:DISL:MBLA:1,2015-02-01T13:12:00Z,30.4367,-88.0117,1.023,11.57,1111122 
DISL,ioos:station:DISL:MBLA:1,2015-02-01T13:15:00Z,30.4367,-88.0117,0.525,11.64,1111122 
DISL,ioos:station:DISL:MBLA:1,2015-02-01T14:02:00Z,30.4367,-88.0117,2.972,9.51,1111122 
DISL,ioos:station:DISL:MBLA:1,2015-02-01T14:05:00Z,30.4367,-88.0117,2.493,10.8,1111122 
DISL,ioos:station:DISL:MBLA:1,2015-02-01T14:07:00Z,30.4367,-88.0117,1.996,11.37,1111122 
DISL,ioos:station:DISL:MBLA:1,2015-02-01T14:10:00Z,30.4367,-88.0117,1.503,11.58,1111122 
DISL,ioos:station:DISL:MBLA:1,2015-02-01T14:12:00Z,30.4367,-88.0117,1.011,11.66,1111122 
DISL,ioos:station:DISL:MBLA:1,2015-02-01T14:15:00Z,30.4367,-88.0117,0.427,11.7,1111122 
DISL,ioos:station:DISL:MBLA:1,2015-02-01T15:02:00Z,30.4367,-88.0117,2.987,10.05,1111122 
DISL,ioos:station:DISL:MBLA:1,2015-02-01T15:05:00Z,30.4367,-88.0117,2.488,10.42,1111122 
DISL,ioos:station:DISL:MBLA:1,2015-02-01T15:07:00Z,30.4367,-88.0117,1.979,10.78,1111122 
DISL,ioos:station:DISL:MBLA:1,2015-02-01T15:10:00Z,30.4367,-88.0117,1.481,11.62,1111122 
DISL,ioos:station:DISL:MBLA:1,2015-02-01T15:12:00Z,30.4367,-88.0117,0.979,10.98,1111122 
DISL,ioos:station:DISL:MBLA:1,2015-02-01T15:15:00Z,30.4367,-88.0117,0.459,10.73,1111122 
DISL,ioos:station:DISL:MBLA:1,2015-02-01T16:03:00Z,30.4367,-88.0117,2.982,10.15,1111122 
DISL,ioos:station:DISL:MBLA:1,2015-02-01T16:05:00Z,30.4367,-88.0117,2.487,10.07,1111122 
DISL,ioos:station:DISL:MBLA:1,2015-02-01T16:07:00Z,30.4367,-88.0117,1.979,10.79,1111122 
DISL,ioos:station:DISL:MBLA:1,2015-02-01T16:10:00Z,30.4367,-88.0117,1.499,11.51,1111122 
DISL,ioos:station:DISL:MBLA:1,2015-02-01T16:12:00Z,30.4367,-88.0117,1.002,11.02,1111122 
DISL,ioos:station:DISL:MBLA:1,2015-02-01T16:15:00Z,30.4367,-88.0117,0.469,10.85,1111122 
DISL,ioos:station:DISL:MBLA:1,2015-02-01T17:03:00Z,30.4367,-88.0117,3.004,10.0,1111122 
DISL,ioos:station:DISL:MBLA:1,2015-02-01T17:07:00Z,30.4367,-88.0117,2.012,11.34,1111122 
DISL,ioos:station:DISL:MBLA:1,2015-02-01T17:10:00Z,30.4367,-88.0117,1.528,11.45,1111122 
DISL,ioos:station:DISL:MBLA:1,2015-02-01T17:12:00Z,30.4367,-88.0117,0.971,11.43,1111122 
DISL,ioos:station:DISL:MBLA:1,2015-02-01T17:15:00Z,30.4367,-88.0117,0.597,11.42,1111122 
DISL,ioos:station:DISL:MBLA:1,2015-02-01T18:03:00Z,30.4367,-88.0117,3.032,9.92,1111122 
DISL,ioos:station:DISL:MBLA:1,2015-02-01T18:05:00Z,30.4367,-88.0117,2.524,10.8,1111122 
DISL,ioos:station:DISL:MBLA:1,2015-02-01T18:07:00Z,30.4367,-88.0117,2.0,11.53,1111122 
DISL,ioos:station:DISL:MBLA:1,2015-02-01T18:10:00Z,30.4367,-88.0117,1.505,11.69,1111122 
DISL,ioos:station:DISL:MBLA:1,2015-02-01T18:12:00Z,30.4367,-88.0117,1.008,12.12,1111122 
DISL,ioos:station:DISL:MBLA:1,2015-02-01T18:15:00Z,30.4367,-88.0117,0.445,12.2,1111122 
DISL,ioos:station:DISL:MBLA:1,2015-02-01T19:03:00Z,30.4367,-88.0117,3.005,10.18,1111122 
DISL,ioos:station:DISL:MBLA:1,2015-02-01T19:05:00Z,30.4367,-88.0117,2.488,11.65,1111122 
DISL,ioos:station:DISL:MBLA:1,2015-02-01T19:07:00Z,30.4367,-88.0117,1.949,12.25,1111122 
DISL,ioos:station:DISL:MBLA:1,2015-02-01T19:10:00Z,30.4367,-88.0117,1.493,12.24,1111122 
DISL,ioos:station:DISL:MBLA:1,2015-02-01T19:12:00Z,30.4367,-88.0117,0.97,12.27,1111122 
DISL,ioos:station:DISL:MBLA:1,2015-02-01T19:15:00Z,30.4367,-88.0117,0.497,12.16,1111122 
DISL,ioos:station:DISL:MBLA:1,2015-02-01T20:03:00Z,30.4367,-88.0117,2.985,10.42,1111122 
DISL,ioos:station:DISL:MBLA:1,2015-02-01T20:05:00Z,30.4367,-88.0117,2.453,11.69,1111122 
DISL,ioos:station:DISL:MBLA:1,2015-02-01T20:07:00Z,30.4367,-88.0117,1.985,11.96,1111122 
DISL,ioos:station:DISL:MBLA:1,2015-02-01T20:10:00Z,30.4367,-88.0117,1.448,12.09,1111122 
DISL,ioos:station:DISL:MBLA:1,2015-02-01T20:12:00Z,30.4367,-88.0117,0.979,12.36,1111122 
DISL,ioos:station:DISL:MBLA:1,2015-02-01T20:15:00Z,30.4367,-88.0117,0.434,12.34,1111122 
DISL,ioos:station:DISL:MBLA:1,2015-02-01T21:03:00Z,30.4367,-88.0117,3.029,9.68,1111122 
DISL,ioos:station:DISL:MBLA:1,2015-02-01T21:05:00Z,30.4367,-88.0117,2.433,11.73,1111122 
DISL,ioos:station:DISL:MBLA:1,2015-02-01T21:07:00Z,30.4367,-88.0117,1.961,11.87,1111122 
DISL,ioos:station:DISL:MBLA:1,2015-02-01T21:10:00Z,30.4367,-88.0117,1.49,11.8,1111122 
DISL,ioos:station:DISL:MBLA:1,2015-02-01T21:12:00Z,30.4367,-88.0117,0.935,11.81,1111122 
DISL,ioos:station:DISL:MBLA:1,2015-02-01T21:15:00Z,30.4367,-88.0117,0.452,11.82,1111122 
DISL,ioos:station:DISL:MBLA:1,2015-02-01T22:03:00Z,30.4367,-88.0117,2.996,9.39,1111122 
DISL,ioos:station:DISL:MBLA:1,2015-02-01T22:05:00Z,30.4367,-88.0117,2.483,11.19,1111122 
DISL,ioos:station:DISL:MBLA:1,2015-02-01T22:07:00Z,30.4367,-88.0117,1.961,11.31,1111122 
DISL,ioos:station:DISL:MBLA:1,2015-02-01T22:10:00Z,30.4367,-88.0117,1.496,11.51,1111122 
DISL,ioos:station:DISL:MBLA:1,2015-02-01T22:12:00Z,30.4367,-88.0117,0.959,11.9,1111122 
DISL,ioos:station:DISL:MBLA:1,2015-02-01T22:15:00Z,30.4367,-88.0117,0.489,12.37,1111122 
DISL,ioos:station:DISL:MBLA:1,2015-02-01T23:03:00Z,30.4367,-88.0117,3.022,9.47,1111122 
DISL,ioos:station:DISL:MBLA:1,2015-02-01T23:05:00Z,30.4367,-88.0117,2.504,10.78,1111122 
DISL,ioos:station:DISL:MBLA:1,2015-02-01T23:07:00Z,30.4367,-88.0117,1.993,10.94,1111122 
DISL,ioos:station:DISL:MBLA:1,2015-02-01T23:10:00Z,30.4367,-88.0117,1.479,11.1,1111122 
DISL,ioos:station:DISL:MBLA:1,2015-02-01T23:12:00Z,30.4367,-88.0117,0.945,11.37,1111122 
DISL,ioos:station:DISL:MBLA:1,2015-02-01T23:15:00Z,30.4367,-88.0117,0.472,11.59,1111122 
DISL,ioos:station:DISL:MBLA:1,2015-02-02T00:03:00Z,30.4367,-88.0117,2.958,9.61,1111122 
DISL,ioos:station:DISL:MBLA:1,2015-02-02T00:05:00Z,30.4367,-88.0117,2.518,10.89,1111122 
DISL,ioos:station:DISL:MBLA:1,2015-02-02T00:07:00Z,30.4367,-88.0117,2.035,10.95,1111122 
DISL,ioos:station:DISL:MBLA:1,2015-02-02T00:10:00Z,30.4367,-88.0117,1.543,11.15,1111122 
DISL,ioos:station:DISL:MBLA:1,2015-02-02T00:13:00Z,30.4367,-88.0117,1.157,11.34,1111122 
DISL,ioos:station:DISL:MBLA:1,2015-02-02T00:15:00Z,30.4367,-88.0117,0.572,11.42,1111122 
DISL,ioos:station:DISL:MBLA:1,2015-02-02T01:05:00Z,30.4367,-88.0117,2.466,10.49,1111122 
DISL,ioos:station:DISL:MBLA:1,2015-02-02T01:07:00Z,30.4367,-88.0117,2.043,10.96,1111122 
DISL,ioos:station:DISL:MBLA:1,2015-02-02T01:10:00Z,30.4367,-88.0117,1.474,11.13,1111122 
DISL,ioos:station:DISL:MBLA:1,2015-02-02T01:12:00Z,30.4367,-88.0117,1.008,10.93,1111122 
DISL,ioos:station:DISL:MBLA:1,2015-02-02T01:15:00Z,30.4367,-88.0117,0.482,11.31,1111122 
DISL,ioos:station:DISL:MBLA:1,2015-02-02T02:03:00Z,30.4367,-88.0117,2.985,10.35,1111122 
DISL,ioos:station:DISL:MBLA:1,2015-02-02T02:05:00Z,30.4367,-88.0117,2.47,10.43,1111122 
DISL,ioos:station:DISL:MBLA:1,2015-02-02T02:07:00Z,30.4367,-88.0117,1.976,10.65,1111122 
DISL,ioos:station:DISL:MBLA:1,2015-02-02T02:10:00Z,30.4367,-88.0117,1.471,11.1,1111122 
DISL,ioos:station:DISL:MBLA:1,2015-02-02T02:12:00Z,30.4367,-88.0117,0.948,11.03,1111122 
DISL,ioos:station:DISL:MBLA:1,2015-02-02T02:15:00Z,30.4367,-88.0117,0.424,11.39,1111122 
DISL,ioos:station:DISL:MBLA:1,2015-02-02T03:03:00Z,30.4367,-88.0117,2.994,10.34,1111122 
DISL,ioos:station:DISL:MBLA:1,2015-02-02T03:07:00Z,30.4367,-88.0117,1.974,10.63,1111122 
DISL,ioos:station:DISL:MBLA:1,2015-02-02T03:10:00Z,30.4367,-88.0117,1.483,11.26,1111122 
DISL,ioos:station:DISL:MBLA:1,2015-02-02T03:12:00Z,30.4367,-88.0117,0.965,11.08,1111122 
DISL,ioos:station:DISL:MBLA:1,2015-02-02T03:15:00Z,30.4367,-88.0117,0.529,11.14,1111122 
DISL,ioos:station:DISL:MBLA:1,2015-02-02T04:03:00Z,30.4367,-88.0117,2.978,10.27,1111122 
DISL,ioos:station:DISL:MBLA:1,2015-02-02T04:05:00Z,30.4367,-88.0117,2.461,10.32,1111122 
DISL,ioos:station:DISL:MBLA:1,2015-02-02T04:07:00Z,30.4367,-88.0117,2.035,10.99,1111122 
DISL,ioos:station:DISL:MBLA:1,2015-02-02T04:10:00Z,30.4367,-88.0117,1.542,11.14,1111122 
DISL,ioos:station:DISL:MBLA:1,2015-02-02T04:12:00Z,30.4367,-88.0117,0.966,10.98,1111122 
DISL,ioos:station:DISL:MBLA:1,2015-02-02T04:15:00Z,30.4367,-88.0117,0.45,11.11,1111122 
DISL,ioos:station:DISL:MBLA:1,2015-02-02T05:03:00Z,30.4367,-88.0117,2.954,10.24,1111122 
DISL,ioos:station:DISL:MBLA:1,2015-02-02T05:05:00Z,30.4367,-88.0117,2.498,10.35,1111122 
DISL,ioos:station:DISL:MBLA:1,2015-02-02T05:07:00Z,30.4367,-88.0117,2.018,10.74,1111122 
DISL,ioos:station:DISL:MBLA:1,2015-02-02T05:10:00Z,30.4367,-88.0117,1.452,11.01,1111122 
DISL,ioos:station:DISL:MBLA:1,2015-02-02T05:12:00Z,30.4367,-88.0117,0.98,11.03,1111122 
DISL,ioos:station:DISL:MBLA:1,2015-02-02T05:15:00Z,30.4367,-88.0117,0.616,11.01,1111122 
DISL,ioos:station:DISL:MBLA:1,2015-02-02T06:03:00Z,30.4367,-88.0117,2.926,10.26,1111122 
DISL,ioos:station:DISL:MBLA:1,2015-02-02T06:05:00Z,30.4367,-88.0117,2.477,10.4,1111122 
DISL,ioos:station:DISL:MBLA:1,2015-02-02T06:07:00Z,30.4367,-88.0117,1.99,10.84,1111122 
DISL,ioos:station:DISL:MBLA:1,2015-02-02T06:10:00Z,30.4367,-88.0117,1.459,10.85,1111122 
DISL,ioos:station:DISL:MBLA:1,2015-02-02T06:12:00Z,30.4367,-88.0117,0.954,10.86,1111122 
DISL,ioos:station:DISL:MBLA:1,2015-02-02T06:15:00Z,30.4367,-88.0117,0.479,10.88,1111122 
DISL,ioos:station:DISL:MBLA:1,2015-02-02T07:03:00Z,30.4367,-88.0117,3.024,10.16,1111122 
DISL,ioos:station:DISL:MBLA:1,2015-02-02T07:07:00Z,30.4367,-88.0117,1.961,10.87,1111122 
DISL,ioos:station:DISL:MBLA:1,2015-02-02T07:10:00Z,30.4367,-88.0117,1.498,10.93,1111122 
DISL,ioos:station:DISL:MBLA:1,2015-02-02T07:12:00Z,30.4367,-88.0117,0.987,10.98,1111122 
DISL,ioos:station:DISL:MBLA:1,2015-02-02T07:15:00Z,30.4367,-88.0117,0.496,10.97,1111122 
DISL,ioos:station:DISL:MBLA:1,2015-02-02T08:03:00Z,30.4367,-88.0117,2.955,9.55,1111122 
DISL,ioos:station:DISL:MBLA:1,2015-02-02T08:05:00Z,30.4367,-88.0117,2.467,10.3,1111122 
DISL,ioos:station:DISL:MBLA:1,2015-02-02T08:07:00Z,30.4367,-88.0117,1.978,10.96,1111122 
DISL,ioos:station:DISL:MBLA:1,2015-02-02T08:10:00Z,30.4367,-88.0117,1.485,11.17,1111122 
DISL,ioos:station:DISL:MBLA:1,2015-02-02T08:12:00Z,30.4367,-88.0117,0.977,11.29,1111122 
DISL,ioos:station:DISL:MBLA:1,2015-02-02T08:15:00Z,30.4367,-88.0117,0.525,11.3,1111122 
DISL,ioos:station:DISL:MBLA:1,2015-02-02T09:02:00Z,30.4367,-88.0117,2.96,8.85,1111122 
DISL,ioos:station:DISL:MBLA:1,2015-02-02T09:07:00Z,30.4367,-88.0117,2.035,11.21,1111122 
DISL,ioos:station:DISL:MBLA:1,2015-02-02T09:10:00Z,30.4367,-88.0117,1.54,11.43,1111122 
DISL,ioos:station:DISL:MBLA:1,2015-02-02T09:12:00Z,30.4367,-88.0117,0.975,11.47,1111122 
DISL,ioos:station:DISL:MBLA:1,2015-02-02T09:15:00Z,30.4367,-88.0117,0.337,11.42,1111122 
DISL,ioos:station:DISL:MBLA:1,2015-02-02T10:02:00Z,30.4367,-88.0117,2.964,8.49,1111122 
DISL,ioos:station:DISL:MBLA:1,2015-02-02T10:05:00Z,30.4367,-88.0117,2.546,9.51,1111122 
DISL,ioos:station:DISL:MBLA:1,2015-02-02T10:07:00Z,30.4367,-88.0117,1.975,10.13,1111122 
DISL,ioos:station:DISL:MBLA:1,2015-02-02T10:10:00Z,30.4367,-88.0117,1.471,10.36,1111122 
DISL,ioos:station:DISL:MBLA:1,2015-02-02T10:12:00Z,30.4367,-88.0117,0.977,10.56,1111122 
DISL,ioos:station:DISL:MBLA:1,2015-02-02T10:15:00Z,30.4367,-88.0117,0.487,10.64,1111122 
DISL,ioos:station:DISL:MBLA:1,2015-02-02T11:02:00Z,30.4367,-88.0117,2.963,8.37,1111122 
DISL,ioos:station:DISL:MBLA:1,2015-02-02T11:05:00Z,30.4367,-88.0117,2.464,9.11,1111122 
DISL,ioos:station:DISL:MBLA:1,2015-02-02T11:07:00Z,30.4367,-88.0117,1.97,9.73,1111122 
DISL,ioos:station:DISL:MBLA:1,2015-02-02T11:10:00Z,30.4367,-88.0117,1.478,9.99,1111122 
DISL,ioos:station:DISL:MBLA:1,2015-02-02T11:12:00Z,30.4367,-88.0117,1.056,10.34,1111122 
DISL,ioos:station:DISL:MBLA:1,2015-02-02T11:15:00Z,30.4367,-88.0117,0.483,10.4,1111122 
DISL,ioos:station:DISL:MBLA:1,2015-02-02T12:03:00Z,30.4367,-88.0117,2.818,9.1,1111122 
DISL,ioos:station:DISL:MBLA:1,2015-02-02T12:06:00Z,30.4367,-88.0117,2.508,9.5,1111122 
DISL,ioos:station:DISL:MBLA:1,2015-02-02T12:08:00Z,30.4367,-88.0117,2.045,9.93,1111122 
DISL,ioos:station:DISL:MBLA:1,2015-02-02T12:10:00Z,30.4367,-88.0117,1.692,10.01,1111122 
DISL,ioos:station:DISL:MBLA:1,2015-02-02T12:13:00Z,30.4367,-88.0117,1.008,10.2,1111122 
DISL,ioos:station:DISL:MBLA:1,2015-02-02T12:15:00Z,30.4367,-88.0117,0.186,10.31,1111122 
DISL,ioos:station:DISL:MBLA:1,2015-02-02T13:03:00Z,30.4367,-88.0117,3.089,9.24,1111122 
DISL,ioos:station:DISL:MBLA:1,2015-02-02T13:06:00Z,30.4367,-88.0117,2.571,9.47,1111122 
DISL,ioos:station:DISL:MBLA:1,2015-02-02T13:08:00Z,30.4367,-88.0117,1.687,9.71,1111122 
DISL,ioos:station:DISL:MBLA:1,2015-02-02T13:11:00Z,30.4367,-88.0117,1.439,9.83,1111122 
DISL,ioos:station:DISL:MBLA:1,2015-02-02T13:13:00Z,30.4367,-88.0117,0.938,9.79,1111122 
DISL,ioos:station:DISL:MBLA:1,2015-02-02T13:16:00Z,30.4367,-88.0117,0.581,9.89,1111122 
DISL,ioos:station:DISL:MBLA:1,2015-02-02T14:03:00Z,30.4367,-88.0117,2.965,9.46,1111122 
DISL,ioos:station:DISL:MBLA:1,2015-02-02T14:05:00Z,30.4367,-88.0117,2.386,9.68,1111122 
DISL,ioos:station:DISL:MBLA:1,2015-02-02T14:08:00Z,30.4367,-88.0117,2.032,9.78,1111122 
DISL,ioos:station:DISL:MBLA:1,2015-02-02T14:10:00Z,30.4367,-88.0117,1.442,9.83,1111122 
DISL,ioos:station:DISL:MBLA:1,2015-02-02T14:13:00Z,30.4367,-88.0117,0.831,9.89,1111122 
DISL,ioos:station:DISL:MBLA:1,2015-02-02T14:15:00Z,30.4367,-88.0117,0.533,9.93,1111122 
DISL,ioos:station:DISL:MBLA:1,2015-02-02T15:03:00Z,30.4367,-88.0117,2.914,9.01,1111122 
DISL,ioos:station:DISL:MBLA:1,2015-02-02T15:06:00Z,30.4367,-88.0117,2.382,9.27,1111122 
DISL,ioos:station:DISL:MBLA:1,2015-02-02T15:08:00Z,30.4367,-88.0117,1.906,9.58,1111122 
DISL,ioos:station:DISL:MBLA:1,2015-02-02T15:11:00Z,30.4367,-88.0117,1.556,9.7,1111122 
DISL,ioos:station:DISL:MBLA:1,2015-02-02T15:14:00Z,30.4367,-88.0117,0.959,9.81,1111122 
DISL,ioos:station:DISL:MBLA:1,2015-02-02T15:16:00Z,30.4367,-88.0117,0.726,9.85,1111122 
DISL,ioos:station:DISL:MBLA:1,2015-02-02T16:03:00Z,30.4367,-88.0117,3.06,8.9,1111122 
DISL,ioos:station:DISL:MBLA:1,2015-02-02T16:05:00Z,30.4367,-88.0117,2.669,9.15,1111122 
DISL,ioos:station:DISL:MBLA:1,2015-02-02T16:08:00Z,30.4367,-88.0117,1.965,9.46,1111122 
DISL,ioos:station:DISL:MBLA:1,2015-02-02T16:11:00Z,30.4367,-88.0117,1.477,9.64,1111122 
DISL,ioos:station:DISL:MBLA:1,2015-02-02T16:13:00Z,30.4367,-88.0117,0.897,9.76,1111122 
DISL,ioos:station:DISL:MBLA:1,2015-02-02T16:16:00Z,30.4367,-88.0117,0.73,9.82,1111122 
DISL,ioos:station:DISL:MBLA:1,2015-02-02T17:02:00Z,30.4367,-88.0117,2.861,8.93,1111122 
DISL,ioos:station:DISL:MBLA:1,2015-02-02T17:07:00Z,30.4367,-88.0117,1.93,9.44,1111122 
DISL,ioos:station:DISL:MBLA:1,2015-02-02T17:10:00Z,30.4367,-88.0117,1.557,9.54,1111122 
DISL,ioos:station:DISL:MBLA:1,2015-02-02T17:13:00Z,30.4367,-88.0117,1.051,9.71,1111122 
DISL,ioos:station:DISL:MBLA:1,2015-02-02T17:15:00Z,30.4367,-88.0117,0.372,9.8,1111122 
DISL,ioos:station:DISL:MBLA:1,2015-02-02T18:03:00Z,30.4367,-88.0117,2.986,9.27,1111122 
DISL,ioos:station:DISL:MBLA:1,2015-02-02T18:05:00Z,30.4367,-88.0117,2.513,9.41,1111122 
DISL,ioos:station:DISL:MBLA:1,2015-02-02T18:07:00Z,30.4367,-88.0117,2.043,9.63,1111122 
DISL,ioos:station:DISL:MBLA:1,2015-02-02T18:10:00Z,30.4367,-88.0117,1.458,9.81,1111122 
DISL,ioos:station:DISL:MBLA:1,2015-02-02T18:12:00Z,30.4367,-88.0117,0.908,9.86,1111122 
DISL,ioos:station:DISL:MBLA:1,2015-02-02T18:15:00Z,30.4367,-88.0117,0.374,9.95,1111122 
DISL,ioos:station:DISL:MBLA:1,2015-02-02T19:03:00Z,30.4367,-88.0117,2.974,9.51,1111122 
DISL,ioos:station:DISL:MBLA:1,2015-02-02T19:05:00Z,30.4367,-88.0117,2.475,9.66,1111122 
DISL,ioos:station:DISL:MBLA:1,2015-02-02T19:07:00Z,30.4367,-88.0117,1.989,9.77,1111122 
DISL,ioos:station:DISL:MBLA:1,2015-02-02T19:10:00Z,30.4367,-88.0117,1.471,9.88,1111122 
DISL,ioos:station:DISL:MBLA:1,2015-02-02T19:16:00Z,30.4367,-88.0117,0.588,9.93,1111122 
DISL,ioos:station:DISL:MBLA:1,2015-02-02T20:03:00Z,30.4367,-88.0117,3.03,9.6,1111122 
DISL,ioos:station:DISL:MBLA:1,2015-02-02T20:05:00Z,30.4367,-88.0117,2.562,9.84,1111122 
DISL,ioos:station:DISL:MBLA:1,2015-02-02T20:07:00Z,30.4367,-88.0117,2.003,9.82,1111122 
DISL,ioos:station:DISL:MBLA:1,2015-02-02T20:10:00Z,30.4367,-88.0117,1.405,9.89,1111122 
DISL,ioos:station:DISL:MBLA:1,2015-02-02T20:12:00Z,30.4367,-88.0117,1.009,9.95,1111122 
DISL,ioos:station:DISL:MBLA:1,2015-02-02T20:15:00Z,30.4367,-88.0117,0.442,10.02,1111122 
DISL,ioos:station:DISL:MBLA:1,2015-02-02T21:03:00Z,30.4367,-88.0117,3.012,9.69,1111122 
DISL,ioos:station:DISL:MBLA:1,2015-02-02T21:05:00Z,30.4367,-88.0117,2.511,9.92,1111122 
DISL,ioos:station:DISL:MBLA:1,2015-02-02T21:07:00Z,30.4367,-88.0117,1.978,10.0,1111122 
DISL,ioos:station:DISL:MBLA:1,2015-02-02T21:10:00Z,30.4367,-88.0117,1.537,10.07,1111122 
DISL,ioos:station:DISL:MBLA:1,2015-02-02T21:12:00Z,30.4367,-88.0117,1.108,10.08,1111122 
DISL,ioos:station:DISL:MBLA:1,2015-02-02T21:15:00Z,30.4367,-88.0117,0.519,10.1,1111122 
DISL,ioos:station:DISL:MBLA:1,2015-02-02T22:03:00Z,30.4367,-88.0117,3.033,9.88,1111122 
DISL,ioos:station:DISL:MBLA:1,2015-02-02T22:05:00Z,30.4367,-88.0117,2.46,10.06,1111122 
DISL,ioos:station:DISL:MBLA:1,2015-02-02T22:07:00Z,30.4367,-88.0117,1.934,10.13,1111122 
DISL,ioos:station:DISL:MBLA:1,2015-02-02T22:10:00Z,30.4367,-88.0117,1.321,10.18,1111122 
DISL,ioos:station:DISL:MBLA:1,2015-02-02T22:13:00Z,30.4367,-88.0117,0.945,10.2,1111122 
DISL,ioos:station:DISL:MBLA:1,2015-02-02T22:15:00Z,30.4367,-88.0117,0.701,10.21,1111122 
DISL,ioos:station:DISL:MBLA:1,2015-02-02T23:03:00Z,30.4367,-88.0117,3.058,9.74,1111122 
DISL,ioos:station:DISL:MBLA:1,2015-02-02T23:05:00Z,30.4367,-88.0117,2.503,9.83,1111122 
DISL,ioos:station:DISL:MBLA:1,2015-02-02T23:08:00Z,30.4367,-88.0117,2.003,9.96,1111122 